Regional Weather Roundup
Issued by NWS

Home | Current Version | Previous Version | Graphics & Text | Print | Product List | Glossary On
Versions: 1 2 3 4 5 6 7 8 9 10 11 12 13 14 15 16 17 18 19 20 21 22 23 24 25 26 27 28 29 30 31 32 33 34 35 36 37 38 39 40 41 42 43 44 45 46 47 48 49 50
000
ASUS43 KFSD 080602
RWRSD

WEATHER ROUNDUP FOR SOUTH DAKOTA
NATIONAL WEATHER SERVICE SIOUX FALLS SD
100 AM CDT WED JUL 08 2015

NOTE: "FAIR" INDICATES FEW OR NO CLOUDS BELOW 12,000 FEET WITH NO
SIGNIFICANT WEATHER AND/OR OBSTRUCTIONS TO VISIBILITY.


SDZ001>005-009-010-012>017-080700-
NORTHWEST AND NORTH CENTRAL SOUTH DAKOTA

CITY           SKY/WX    TMP DP  RH WIND       PRES   REMARKS
BUFFALO          N/A     57  55  93 NW8       29.91F
FAITH            N/A     62  56  80 S8        29.97F
MOBRIDGE       MOCLDY    66  58  75 S14       29.97F
$$

SDZ012>016-024>037-041>051-057-063-072>074-080700-
SOUTHWEST AND SOUTH CENTRAL SOUTH DAKOTA

CITY           SKY/WX    TMP DP  RH WIND       PRES   REMARKS
RAPID CTY ARPT CLOUDY    66  57  72 SW8       30.01F
PIERRE         CLEAR     62  55  77 SE15      29.99F
CUSTER         CLOUDY    56  49  77 W5        30.13F
ELLSWORTH AFB  CLOUDY    63  57  81 W5        30.00F
PHILIP         PTCLDY    63  56  78 S7        29.98F
PINE RIDGE     PTCLDY    64  51  62 S18G29    30.03F
WINNER         FAIR      61  51  70 SE10      30.05F
$$

SDZ004>011-016>023-039-040-080700-
NORTHEAST SOUTH DAKOTA

CITY           SKY/WX    TMP DP  RH WIND       PRES   REMARKS
ABERDEEN       CLEAR     56  51  84 SE10      30.05F
WATERTOWN      CLEAR     56  50  80 S8        30.10S
BROOKINGS      PTCLDY    55  48  76 SE7       30.12F
SISSETON         N/A     52  48  86 S8        30.07F
$$

SDZ017-020-022-023-036>040-048>070-080700-
SOUTHEAST SOUTH DAKOTA

CITY           SKY/WX    TMP DP  RH WIND       PRES   REMARKS
SIOUX FALLS    PTCLDY    59  51  75 SE7       30.11F
HURON          CLEAR     56  51  84 SE8       30.06F
CHAMBERLAIN    CLEAR     56  52  85 SE8       30.06F
MITCHELL       PTCLDY    58  52  80 S8        30.08F
YANKTON        CLEAR     55  50  82 CALM      30.10F
$$

ABBREVIATIONS USED IN REMARKS
   TC - TEMPERATURE IN CELSIUS
  WCI - WIND CHILL INDEX
   HX - HEAT INDEX
  VSB - VISIBILITY




USA.gov is the U.S. government's official web portal to all federal, state and local government web resources and services.